User: anonymous   Login
Location: Northam
(31.6525°S, 116.6655°E)
Time: 08:53:46
(UTC+08:00)
Language:

AO-92 - Orbit

View from above orbital plane
View from above orbital plane
View from above satellite
View from above satellite

Ground track
Ground track

The orbit data is extracted from the following two-line orbital elements,

1 43137U 18004AC  21206.51290484  .00002336  00000-0  95239-4 0  9991
2 43137  97.4054 280.1559 0010445  80.2614 279.9803 15.25405333196469
Epoch (UTC): 25 July 2021 12:18:34
Eccentricity: 0.0010445
inclination: 97.4054°
perigee height: 482 km
apogee height: 497 km
right ascension of ascending node: 280.1559°
argument of perigee: 80.2614°
revolutions per day: 15.25405333
mean anomaly at epoch: 279.9803°
orbit number at epoch: 19646

The dashed part of the orbit path shows where the satellite is in the earth's shadow,  

DLR